FW7658 Weather Reports


time (UTC)temp
C
wind
direction
speed
KPH
gust
KPH
rain 1hr
cm
rain 24hr
cm
rain mn
cm
humidity
%
barometer
mb
20260509111555 16 0 0.0 0.0 0.00 0.00 0.00 94 1012.9
20260509110057 16 0 0.0 0.0 0.00 0.00 0.00 94 1012.7
20260509104555 16 0 0.0 0.0 0.00 0.00 0.00 94 1012.5
20260509103101 16 0 0.0 0.0 0.00 0.00 0.00 93 1012.1
20260509101559 16 0 0.0 0.0 0.00 0.00 0.00 92 1012.1
20260509100055 17 0 0.0 0.0 0.00 0.00 0.00 92 1012.0
20260509094555 17 0 0.0 0.0 0.00 0.00 0.00 91 1012.2
20260509093056 17 0 0.0 0.0 0.00 0.00 0.00 91 1012.4
20260509091619 17 0 0.0 0.0 0.00 0.00 0.00 91 1012.6
20260509090056 17 0 0.0 0.0 0.00 0.00 0.00 91 1012.7
20260509084555 17 0 0.0 0.0 0.00 0.00 0.00 91 1012.5
20260509083055 17 0 0.0 0.0 0.00 0.00 0.00 91 1012.3
20260509081556 17 0 0.0 0.0 0.00 0.00 0.00 90 1012.0
20260509080107 17 0 0.0 0.0 0.00 0.00 0.00 90 1012.8
20260509074601 17 0 0.0 0.0 0.00 0.00 0.00 90 1013.1
20260509073131 17 0 0.0 0.0 0.00 0.00 0.00 89 1012.9
20260509071555 17 0 0.0 0.0 0.00 0.00 0.00 89 1012.8
20260509070100 17 0 0.0 0.0 0.00 0.00 0.00 89 1012.9
20260509064555 17 0 0.0 0.0 0.00 0.00 0.00 88 1013.2
20260509063101 17 0 0.0 0.0 0.00 0.00 0.00 88 1013.3
20260509061602 17 0 0.0 0.0 0.00 0.00 0.00 87 1013.6
20260509060105 17 0 0.0 0.0 0.00 0.00 0.00 87 1014.1
20260509054611 17 0 0.0 0.0 0.00 0.00 0.00 86 1013.9
20260509053058 17 0 0.0 0.0 0.00 0.00 0.00 86 1013.8
20260509051556 17 0 0.0 0.0 0.00 0.00 0.00 86 1014.0
20260509050059 17 0 0.0 0.0 0.00 0.00 0.00 86 1014.6
20260509044603 17 0 0.0 0.0 0.00 0.00 0.00 85 1014.6
20260509043055 17 0 0.0 0.0 0.00 0.00 0.00 84 1015.1
20260509041558 17 0 0.0 0.0 0.00 0.00 0.00 84 1015.2
20260509040126 17 0 0.0 0.0 0.00 0.00 0.00 84 1015.1
20260509034558 17 0 0.0 0.0 0.00 0.00 0.00 84 1015.3
20260509033058 17 0 0.0 0.0 0.00 0.00 0.00 83 1015.5
20260509031558 17 0 0.0 0.0 0.00 0.00 0.00 83 1015.7
20260509030059 17 0 0.0 0.0 0.00 0.00 0.00 83 1015.8
20260509024556 18 0 0.0 0.0 0.00 0.00 0.00 82 1015.7
20260509023053 18 0 0.0 0.0 0.00 0.00 0.00 82 1015.4
20260509021553 18 0 0.0 0.0 0.00 0.00 0.00 82 1015.7
20260509020056 18 0 0.0 0.0 0.00 0.00 0.00 81 1015.5
20260509014557 18 0 0.0 0.0 0.00 0.00 0.00 80 1015.5
20260509013056 18 0 0.0 0.0 0.00 0.00 0.00 80 1015.4
20260509011605 18 0 0.0 0.0 0.00 0.00 0.00 79 1015.5
20260509010057 18 0 0.0 3.2 0.00 0.00 0.00 78 1015.2
20260509004608 18 0 0.0 1.6 0.00 0.00 0.00 77 1015.1
20260509003057 18 134 0.0 4.8 0.00 0.00 0.00 76 1014.9
20260509001557 18 0 0.0 4.8 0.00 0.00 0.00 75 1014.8
20260509000058 18 52 0.0 4.8 0.00 0.00 0.00 73 1014.8
20260508234554 18 103 0.0 6.4 0.00 0.00 0.00 72 1014.6
20260508233054 19 0 0.0 8.0 0.00 0.00 0.00 71 1014.4
20260508231555 19 1 1.6 8.0 0.00 0.00 0.00 70 1014.5
20260508230103 20 0 0.0 6.4 0.00 0.00 0.00 70 1014.7
20260508224556 20 0 1.6 4.8 0.00 0.00 0.00 69 1014.9
20260508223059 20 131 0.0 8.0 0.00 0.00 0.00 67 1014.5
20260508221555 20 0 1.6 12.9 0.00 0.00 0.00 67 1014.4
20260508220100 20 0 0.0 6.4 0.00 0.00 0.00 68 1014.6
20260508214607 21 203 1.6 12.9 0.00 0.00 0.00 66 1014.5
20260508213053 21 0 1.6 12.9 0.00 0.00 0.00 65 1014.4
20260508211558 21 157 1.6 12.9 0.00 0.00 0.00 66 1014.6
20260508210055 22 0 3.2 17.7 0.00 0.00 0.00 63 1014.4
20260508204601 23 88 3.2 12.9 0.00 0.41 0.00 63 1014.1
20260508203101 23 95 1.6 12.9 0.00 0.41 0.00 60 1014.2
20260508201557 25 208 1.6 8.0 0.00 0.41 0.00 53 1014.0
20260508200054 25 309 0.0 3.2 0.00 0.41 0.00 51 1014.2
20260508194614 24 0 1.6 9.7 0.00 1.02 0.00 50 1014.6
20260508193111 23 152 1.6 6.4 0.00 1.02 0.00 53 1014.8
20260508191553 25 273 1.6 6.4 0.00 1.02 0.00 53 1014.7
20260508190056 23 184 0.0 11.3 0.00 1.02 0.00 52 1014.8
20260508184602 24 346 0.0 9.7 0.00 1.27 0.00 54 1015.1
20260508183056 23 126 3.2 8.0 0.00 1.27 0.00 51 1015.2
20260508181601 24 0 0.0 8.0 0.00 1.27 0.00 51 1015.4
20260508180058 23 0 0.0 6.4 0.00 1.27 0.00 53 1015.5
20260508174602 23 132 1.6 9.7 0.00 1.27 0.00 51 1015.7
20260508173056 23 0 0.0 6.4 0.00 1.27 0.00 50 1015.9
20260508171600 22 0 1.6 9.7 0.00 1.27 0.00 52 1015.9
20260508164603 22 31 1.6 8.0 0.00 1.27 0.00 53 1016.1
20260508163106 22 133 1.6 6.4 0.00 1.27 0.00 55 1016.2
20260508161556 22 263 0.0 8.0 0.00 1.27 0.00 54 1016.5
20260508160129 21 310 1.6 9.7 0.00 1.27 0.00 56 1017.1
20260508154558 21 334 3.2 12.9 0.00 1.27 0.00 52 1017.5
20260508153056 21 0 3.2 12.9 0.00 1.27 0.00 56 1017.4
20260508151556 21 355 3.2 12.9 0.00 1.27 0.00 58 1017.5
20260508150055 20 138 3.2 12.9 0.00 1.27 0.00 61 1017.3
20260508144553 20 150 3.2 9.7 0.00 1.27 0.00 62 1017.5
20260508143105 18 275 3.2 14.5 0.00 1.27 0.00 66 1017.5
20260508141601 18 286 3.2 14.5 0.00 1.27 0.00 66 1017.3
20260508140054 18 13 1.6 9.7 0.00 1.27 0.00 69 1017.1
20260508134554 17 0 0.0 12.9 0.00 1.27 0.00 72 1017.1
20260508133059 17 0 0.0 12.9 0.00 1.27 0.00 77 1016.8
20260508131553 17 0 0.0 12.9 0.00 1.27 0.00 80 1016.5
20260508130057 16 0 3.2 11.3 0.00 1.27 0.00 83 1016.4
20260508124554 16 0 0.0 8.0 0.00 1.27 0.00 86 1016.3
20260508123055 16 0 0.0 0.0 0.00 1.27 0.00 89 1016.1
20260508121607 15 0 0.0 3.2 0.00 1.27 0.00 91 1015.8
20260508120053 15 0 1.6 6.4 0.00 1.27 0.00 92 1015.7
20260508114556 15 0 0.0 4.8 0.00 1.27 0.00 93 1015.6
20260508113053 14 0 0.0 0.0 0.00 1.27 0.00 94 1015.3